CW8919 Weather Reports


time (UTC)temp
C
wind
direction
speed
KPH
gust
KPH
rain 1hr
cm
rain 24hr
cm
rain mn
cm
humidity
%
barometer
mb
20190421061422 15 83 3.2 9.7 0.00 0.00 0.00 64 1012.6
20190421055938 15 89 6.4 19.3 0.00 0.00 0.00 64 1012.5
20190421054425 15 72 4.8 14.5 0.00 0.00 0.00 64 1012.5
20190421052927 15 71 1.6 12.9 0.00 0.00 0.00 64 1012.4
20190421051441 15 75 0.0 8.0 0.00 0.00 0.00 65 1012.5
20190421045928 15 72 3.2 8.0 0.00 0.00 0.00 65 1012.6
20190421044439 15 71 0.0 9.7 0.00 0.00 0.00 66 1012.6
20190421042936 15 74 0.0 8.0 0.00 0.00 0.00 65 1012.7
20190421041432 15 87 3.2 9.7 0.00 0.00 0.00 64 1012.7
20190421035933 15 98 4.8 12.9 0.00 0.00 0.00 66 1012.8
20190421034427 15 113 4.8 14.5 0.00 0.00 0.00 66 1012.8
20190421032939 15 132 3.2 9.7 0.00 0.00 0.00 70 1013.0
20190421031437 15 135 1.6 9.7 0.00 0.00 0.00 72 1013.0
20190421025926 15 136 0.0 0.0 0.00 0.00 0.00 73 1013.0
20190421024424 15 136 0.0 0.0 0.00 0.00 0.00 74 1013.0
20190421022940 15 137 0.0 0.0 0.00 0.00 0.00 74 1013.2
20190421021435 15 137 0.0 0.0 0.00 0.00 0.00 74 1013.3
20190421015934 16 136 0.0 0.0 0.00 0.00 0.00 74 1013.4
20190421014435 16 136 0.0 0.0 0.00 0.00 0.00 74 1013.5
20190421012932 16 136 0.0 1.6 0.00 0.00 0.00 73 1013.8
20190421011430 16 137 0.0 0.0 0.00 0.00 0.00 72 1013.9
20190421005936 16 137 0.0 0.0 0.00 0.00 0.00 72 1014.2
20190421004429 17 136 0.0 1.6 0.00 0.00 0.00 71 1014.3
20190421002925 17 136 0.0 9.7 0.00 0.00 0.00 70 1014.4
20190421001423 17 136 1.6 9.7 0.00 0.00 0.00 69 1014.4
20190420235943 17 137 0.0 4.8 0.00 0.00 0.00 66 1014.6
20190420234436 18 137 1.6 6.4 0.00 0.00 0.00 65 1014.6
20190420232934 18 137 1.6 6.4 0.00 0.00 0.00 64 1014.5
20190420231426 18 136 1.6 6.4 0.00 0.00 0.00 64 1014.5
20190420225939 17 137 1.6 12.9 0.00 0.00 0.00 63 1014.5
20190420224438 17 80 1.6 4.8 0.00 0.00 0.00 63 1014.5
20190420222933 18 79 3.2 9.7 0.00 0.00 0.00 63 1014.7
20190420221423 18 6 9.7 22.5 0.00 0.00 0.00 58 1014.2
20190420215927 18 352 3.2 14.5 0.00 0.00 0.00 57 1014.2
20190420212939 19 339 16.1 25.7 0.00 0.00 0.00 54 1014.1
20190420211439 19 352 11.3 25.7 0.00 0.00 0.00 56 1014.3
20190420205929 19 325 17.7 25.7 0.00 0.00 0.00 55 1014.3
20190420204423 19 25 12.9 29.0 0.00 0.00 0.00 56 1014.3
20190420202925 19 349 11.3 24.1 0.00 0.00 0.00 55 1014.2
20190420201439 20 1 14.5 27.4 0.00 0.00 0.00 54 1014.1
20190420195924 20 352 8.0 22.5 0.00 0.00 0.00 53 1014.0
20190420194436 20 347 11.3 25.7 0.00 0.00 0.00 52 1014.0
20190420192932 20 354 9.7 22.5 0.00 0.00 0.00 53 1013.9
20190420191431 21 15 9.7 20.9 0.00 0.00 0.00 52 1013.8
20190420185922 21 352 4.8 14.5 0.00 0.00 0.00 53 1013.8
20190420184436 22 9 6.4 14.5 0.00 0.00 0.00 51 1013.8
20190420182937 22 349 6.4 24.1 0.00 0.00 0.00 49 1013.7
20190420181433 22 357 3.2 16.1 0.00 0.00 0.00 48 1013.6
20190420175932 23 342 11.3 25.7 0.00 0.00 0.00 47 1013.7
20190420174432 24 12 4.8 22.5 0.00 0.00 0.00 46 1013.8
20190420172929 24 354 11.3 27.4 0.00 0.00 0.00 46 1013.8
20190420171520 24 330 9.7 19.3 0.00 0.00 0.00 46 1013.9
20190420170211 25 347 11.3 32.2 0.00 0.00 0.00 46 1013.8
20190420164425 25 25 14.5 24.1 0.00 0.00 0.00 46 1013.7
20190420162940 25 352 11.3 24.1 0.00 0.00 0.00 45 1013.8
20190420161421 26 345 11.3 22.5 0.00 0.00 0.00 42 1014.0
20190420155922 26 81 11.3 27.4 0.00 0.20 0.00 39 1013.9
20190420154437 26 67 11.3 20.9 0.00 0.20 0.00 40 1014.1
20190420152936 26 81 6.4 27.4 0.00 0.20 0.00 41 1014.4
20190420151432 26 78 9.7 30.6 0.00 0.20 0.00 40 1014.5
20190420145940 26 39 8.0 27.4 0.00 0.89 0.00 40 1014.7
20190420144437 26 70 12.9 25.7 0.00 0.89 0.00 40 1014.8
20190420142936 26 14 8.0 24.1 0.00 0.89 0.00 40 1015.0
20190420141433 25 54 11.3 25.7 0.00 0.89 0.00 41 1014.9
20190420135934 25 30 14.5 29.0 0.00 0.99 0.00 39 1015.2
20190420134432 25 63 14.5 30.6 0.00 0.99 0.00 40 1015.3
20190420132934 25 72 12.9 24.1 0.00 0.99 0.00 40 1015.4
20190420131430 25 25 9.7 24.1 0.00 0.99 0.00 43 1015.2
20190420125939 24 59 12.9 25.7 0.00 0.99 0.00 44 1015.4
20190420124437 23 85 12.9 29.0 0.00 0.99 0.00 47 1015.7
20190420122931 23 48 14.5 24.1 0.00 0.99 0.00 47 1016.0
20190420121428 23 49 16.1 24.1 0.00 0.99 0.00 48 1016.1
20190420115930 22 62 14.5 24.1 0.00 0.99 0.00 48 1016.2
20190420114422 22 76 9.7 22.5 0.00 0.99 0.00 51 1016.4
20190420112938 22 72 8.0 17.7 0.00 0.99 0.00 53 1016.4
20190420111438 21 25 9.7 20.9 0.00 0.99 0.00 53 1016.8
20190420105933 21 81 9.7 27.4 0.00 0.99 0.00 56 1016.7
20190420104429 20 50 11.3 20.9 0.00 0.99 0.00 59 1016.8
20190420102929 20 79 12.9 29.0 0.00 0.99 0.00 59 1016.9
20190420101425 19 62 14.5 24.1 0.00 0.99 0.00 61 1017.1
20190420095941 18 62 9.7 24.1 0.00 0.99 0.00 64 1017.3
20190420094423 17 53 9.7 27.4 0.00 0.99 0.00 67 1017.5
20190420092937 17 64 4.8 22.5 0.00 0.99 0.00 70 1017.5
20190420091431 16 83 8.0 17.7 0.00 0.99 0.00 71 1017.6
20190420085926 16 63 4.8 19.3 0.00 0.99 0.00 72 1017.6
20190420084423 15 78 9.7 16.1 0.00 0.99 0.00 74 1017.4
20190420082940 15 49 4.8 17.7 0.00 0.99 0.00 75 1017.3
20190420081441 15 45 9.7 22.5 0.00 0.99 0.00 75 1017.1
20190420075923 15 57 9.7 20.9 0.00 0.99 0.00 76 1017.4
20190420074438 14 81 9.7 29.0 0.00 0.99 0.00 77 1017.4
20190420072938 14 35 12.9 30.6 0.00 0.99 0.00 78 1017.4
20190420071437 13 50 12.9 35.4 0.00 0.99 0.00 80 1017.1
20190420065926 13 63 11.3 24.1 0.00 1.09 0.00 81 1016.8
20190420064425 13 55 6.4 19.3 0.00 1.09 0.00 82 1016.7
20190420062923 13 60 3.2 16.1 0.00 1.09 0.00 82 1016.7